Regional Weather Roundup
Issued by NWS

Home | Current Version | Previous Version | Graphics & Text | Print | Product List | Glossary On
Versions: 1 2 3 4 5 6 7 8 9 10 11 12 13 14 15 16 17 18 19 20 21 22 23 24 25 26 27 28 29 30 31 32 33 34 35 36 37 38 39 40 41 42 43 44 45 46 47 48 49 50
000
ASUS43 KMPX 272110
RWRMN
WEATHER ROUNDUP FOR MINNESOTA
NATIONAL WEATHER SERVICE TWIN CITIES/CHANHASSEN MN
400 PM CDT WED AUG 27 2014


NOTE: "FAIR" INDICATES FEW OR NO CLOUDS BELOW 12,000 FEET WITH NO
SIGNIFICANT WEATHER AND/OR OBSTRUCTIONS TO VISIBILITY. N/A MEANS
CURRENT SKY AND/OR WEATHER CONDITIONS ARE NOT AVAILABLE.

MNZ060>063-068>070-272200-
   Twin Cities Metro

CITY           SKY/WX    TMP DP  RH WIND       PRES   REMARKS
TWIN CITIES    PTSUNNY   76  54  46 SE7       30.15F
ST PAUL        MOSUNNY   76  57  51 SE6       30.15F
CRYSTAL        MOSUNNY   77  55  46 SE3       30.14F
BLAINE         PTSUNNY   73  59  60 NE5       30.16F
LAKEVILLE      PTSUNNY   75  57  53 SE6       30.16F
EDEN PRAIRIE   MOSUNNY   78  54  43 CALM      30.15F
SOUTH ST PAUL  MOSUNNY   76  55  47 CALM      30.15F
LAKE ELMO      FAIR      73  55  53 CALM      30.17F
$$
MNZ001>005-007-008-013>017-022>024-027-028-272200-
   Northwest Minnesota

CITY           SKY/WX    TMP DP  RH WIND       PRES   REMARKS
BEMIDJI        MOSUNNY   70  51  49 W3        30.16S
HALLOCK        SUNNY     73  52  46 S9        30.10F
ROSEAU         SUNNY     73  52  46 SW5       30.13F
WARROAD        SUNNY     70  52  52 E7        30.14F
THIEF RVR FALL SUNNY     72  50  46 S7        30.14F
CROOKSTON      SUNNY     73  52  46 S7        30.14F
FOSSTON        MOSUNNY   72  54  53 S7        30.16F
DETROIT LAKES  PTSUNNY   68  57  68 S6        30.17F
MOORHEAD       PTSUNNY   73  61  64 S5        30.14F
PARK RAPIDS    PTSUNNY   69  55  60 S9        30.16F
MAHNOMEN       MOCLDY    70  56  60 S5        30.14F
$$
MNZ006-009>011-018-025>026-272200-
   North Central Minnesota

CITY           SKY/WX    TMP DP  RH WIND       PRES   REMARKS
BAUDETTE       SUNNY     71  47  42 CALM      30.14F
FLAG ISLAND    SUNNY     68  52  56 S7        30.13F
INTL FALLS     SUNNY     71  51  49 SW7       30.14F
WASKISH        SUNNY     70  54  56 CALM      30.15F
BIG FORK       MOSUNNY   63  43  48 SW5       30.16F
LONGVILLE      MOSUNNY   72  57  60 SW7       30.16F
GRAND RAPIDS   MOSUNNY   70  48  46 NW8       30.17F
CRANE LAKE     SUNNY     68  50  52 CALM      30.17S
ORR            MOSUNNY   70  46  43 CALM      30.13F
COOK           MOSUNNY   70  52  52 W6        30.16F
WALKER         MOCLDY    70  52  52 CALM      30.15F
$$
MNZ012-019>021-037-272200-
   Northeast Minnesota

CITY           SKY/WX    TMP DP  RH WIND       PRES   REMARKS
DULUTH         MOSUNNY   71  48  43 W10       30.17F
ELY            PTSUNNY   64  48  55 W8        30.17S
HIBBING        MOSUNNY   72  46  39 W9        30.17F
EVELETH        MOSUNNY   66  45  45 W6        30.18S
DULUTH HARBOR  MOSUNNY   70  57  64 E7        30.17F
TWO HARBORS    MOSUNNY   66  54  63 S7        30.15F
SILVER BAY     SUNNY     64  57  77 SE8       30.15F
GRAND MARAIS     N/A     62  54  74 W7        30.17F
G MARAIS ARPRT MOSUNNY   59  45  58 SE3       30.19F
$$
MNZ029>031-032-039>041-046>048-054>057-064-272200-
   West Central Minnesota

CITY           SKY/WX    TMP DP  RH WIND       PRES   REMARKS
FERGUS FALLS   PTSUNNY   72  55  56 S7        30.14F
WHEATON        MOSUNNY   70  59  68 S7        30.15F
MORRIS         MOSUNNY   75  57  53 SE5       30.14F
ALEXANDRIA     MOSUNNY   71  56  58 CALM      30.17F
ELBOW LAKE     FAIR      72  58  62 CALM      30.15F
WADENA         CLOUDY    66  57  72 CALM      30.17F
GLENWOOD       MOSUNNY   73  57  56 E6        30.17S
APPLETON       MOSUNNY   77  57  50 SE5       30.13F
BENSON         PTSUNNY   73  59  60 S3        30.14F
ORTONVILLE     PTSUNNY   73  57  56 SE7       30.13F
MADISON        MOSUNNY   77  61  57 SE7       30.13S
WILLMAR        FAIR      75  57  53 SE5       30.16F
$$
MNZ033>034-036-042>043-049>051-058-059-272200-
   Central Minnesota

CITY           SKY/WX    TMP DP  RH WIND       PRES   REMARKS
ST CLOUD       SUNNY     76  56  49 SE3       30.16F
SAUK CENTRE    MOCLDY    73  57  57 CALM      30.17F
PAYNESVILLE    PTSUNNY   71  56  59 SE5       30.17F HAZE
AITKIN         PTSUNNY   72  57  60 S5        30.17F
PINE RIVER     CLOUDY    68  57  68 SW3       30.20F
BRAINERD       CLOUDY    67  56  67 S8        30.18F
STAPLES        CLOUDY    66  55  68 S5        30.18S
LONG PRAIRIE   PTSUNNY   70  55  60 E6        30.17F
LITTLE FALLS   PTSUNNY   70  55  60 CALM      30.18F
LITCHFIELD     MOSUNNY   75  59  57 SE5       30.16F
BUFFALO        MOSUNNY   74  54  49 CALM      30.17F
MAPLE LAKE     MOSUNNY   74  60  59 E5        30.17F
$$
MNZ037-044-045-052-053-272200-
   East Central Minnesota

CITY           SKY/WX    TMP DP  RH WIND       PRES   REMARKS
PRINCETON      SUNNY     73  57  56 N2        30.17F
MORA           CLOUDY    68  52  56 CALM      30.20F
CAMBRIDGE      MOSUNNY   73  57  56 CALM      30.15F
RUSH CITY      MOSUNNY   71  55  57 CALM      30.18F
MOOSE LAKE     MOSUNNY   70  52  52 SW3       30.16F
HINCKLEY       CLOUDY    70  54  56 SW3       30.18F
CLOQUET        MOSUNNY   70  46  43 W8        30.17F
MCGREGOR       MOSUNNY   68  54  60 W3        30.18F
$$
MNZ071>073-080-081-089-090-097-098-272200-
   Southwest Minnesota

CITY           SKY/WX    TMP DP  RH WIND       PRES   REMARKS
MONTEVIDEO     PTSUNNY   77  61  57 SE10      30.14F
GRANITE FALLS  PTSUNNY   75  58  55 SE8       30.15F
CANBY          MOSUNNY   75  61  60 SE7       30.14S
OLIVIA         MOSUNNY   73  55  53 SE8       30.14F
PIPESTONE      MOSUNNY   73  63  68 SE8       30.13F
WINDOM         PTSUNNY   73  59  60 E9        30.15F
JACKSON        CLOUDY    73  59  60 SE7       30.15F
TRACY          MOSUNNY   75  61  60 SE5       30.14F
SLAYTON        PTSUNNY   71  61  70 CALM      30.15F
$$
MNZ065>067-074>077-082>085-091>093-272200-
   South Central Minnesota

CITY           SKY/WX    TMP DP  RH WIND       PRES   REMARKS
MANKATO        PTSUNNY   73  55  53 SE7       30.16F
NEW ULM        MOSUNNY   73  57  56 SE8       30.15F
ST JAMES       PTSUNNY   77  57  50 SE6       30.16F
GLENCOE        PTSUNNY   75  56  51 CALM      30.15F
FARIBAULT      CLOUDY    79  54  41 E3        30.16F
OWATONNA       PTSUNNY   73  57  56 E3        30.17F
WASECA         PTSUNNY   72  54  53 CALM      30.18F
ALBERT LEA     PTSUNNY   73  57  56 SE5       30.16F
$$
MNZ078>079-086>088-094>096-272200-
   Southeast Minnesota

CITY           SKY/WX    TMP DP  RH WIND       PRES   REMARKS
ROCHESTER      PTSUNNY   73  58  59 S3        30.18F
RED WING       MOSUNNY   75  55  50 CALM      30.15S
STANTON        MOSUNNY   74  57  54 S3        30.15F
DODGE CENTER   PTSUNNY   72  57  60 CALM      30.18S
WINONA         PTSUNNY   73  57  56 NE3       30.16F
AUSTIN         PTSUNNY   72  57  60 CALM      30.17S
PRESTON        PTSUNNY   71  62  72 CALM      30.18F
$$
ABBREVIATIONS USED IN REMARKS
   TC - TEMPERATURES IN CELSIUS
  WCI - WIND CHILL INDEX
   HX - HEAT INDEX
  VSB - VISIBILITY
$$



USA.gov is the U.S. government's official web portal to all federal, state and local government web resources and services.